Hourly Weather Roundup
Issued by NWS Central Illinois

Home | Current Version | Previous Version | Graphics & Text | Print | Product List | Glossary On
Versions: 1 2 3 4 5 6 7 8 9 10 11 12 13 14 15 16 17 18 19 20 21 22 23 24 25 26 27 28 29 30 31 32 33 34 35 36 37 38 39 40 41 42 43 44 45 46 47 48 49 50
000
NZUS43 KILX 191610
HWRILX

Area Weather Roundup
National Weather Service Lincoln IL
1000 AM CST MON FEB 19 2018

NOTE:  "FAIR" indicates few or no clouds below 12,000 feet, with
       no sigificant weather and/or obstructions to visibility.


CITY           SKY/WX    TMP DP  RH WIND       PRES   REMARKS
Bloomington    LGT RAIN  55  54  96 S26G33    29.81R FOG
Champaign      LGT RAIN  57  56  96 S21       29.88R FOG
Danville       RAIN      55  55 100 S20       29.87F
Decatur        CLOUDY    58  32  37 SW24G36   29.87S
Effingham      LGT RAIN  60  60 100 S13G18    29.97R
Flora          CLOUDY    62  59  88 S20G28    29.98R
Galesburg      FOG       48  48 100 S8        29.76F VSB 1/2
Jacksonville   CLOUDY    58  55  91 S15G22    29.82R
Lacon          DRIZZLE   49  49 100 S7        29.77F
Lawrenceville  LGT RAIN  61  58  90 S21       30.00R
Litchfield     LGT RAIN  57  56  97 S21G29    29.86F
$$


CITY           SKY/WX    TMP DP  RH WIND       PRES   REMARKS
Lincoln        HVY RAIN  58  57  99 S9G18     29.83R
Macomb         CLOUDY    53  53 100 S14       29.78S
Mattoon        RAIN      59  57  93 S17G26    29.92R FOG
Mt Carmel AP   DRIZZLE   61  58  90 S23G29    29.99R
Olney-Noble AP RAIN      61  59  92 S16       29.98S
Paris AP       LGT RAIN  59  57  94 SW23G36   29.94R
Peoria         LGT RAIN  53  53 100 S13       29.79S FOG
Pontiac        RAIN      50  50  98 S14       29.81F
Rantoul        CLOUDY    56  56  99 S13       29.88S
Robinson       LGT RAIN  60  58  94 S20G25    29.99R
Springfield    CLOUDY    60  57  89 S22G33    29.83S
Taylorville    RAIN      57  56  97 S17G28    29.87R
$$

...REGIONAL REPORTS...


CITY           SKY/WX    TMP DP  RH WIND       PRES   REMARKS
Chicago O`Hare LGT RAIN  41  40  96 CALM      29.84S VSB 1
Kankakee       HVY RAIN  47  46  98 SE8       29.84F
Moline         LGT RAIN  46  45  96 SE6       29.72F
Mount Sterling CLOUDY    58  55  92 S17G24    29.79R
Mount Vernon   LGT RAIN  60  58  92 S18G24    29.99R
Pittsfield     CLOUDY    60  56  87 SW14G20   29.82R
Quincy         CLOUDY    58  55  90 S16       29.77R
Rockford       LGT RAIN  38  37  97 SE7       29.82S FOG     WCI  33
$$


CITY           SKY/WX    TMP DP  RH WIND       PRES   REMARKS
Burlington     CLOUDY    52  51  97 S14       29.72S
Cedar Rapids   FOG       43  42  97 SE7       29.68F VSB 1/4
Des Moines     DRIZZLE   36  35  96 NW9       29.68R FOG     WCI  29
Kirksville     CLOUDY    60  59  96 S17G25    29.71S
Ottumwa        LGT RAIN  51  50  96 S16       29.65F
St Louis       CLOUDY    61  57  87 S23G32    29.86S
$$


CITY           SKY/WX    TMP DP  RH WIND       PRES   REMARKS
Terre Haute    LGT RAIN  60  58  92 SW23G31   29.97R FOG
Evansville     PTSUNNY   63  59  87 SW15G28   30.05R
Indianapolis   LGT RAIN  61  58  90 SW16      29.97S
Lafayette      LGT RAIN  50  50 100 SE3       29.92S FOG
Madison        CLOUDY    38  36  92 CALM      29.83R
Milwaukee      LGT RAIN  42  38  85 S7        29.87R
$$





USA.gov is the U.S. government's official web portal to all federal, state and local government web resources and services.